When you browse on this site, cookies collect data to enhance your experience and personalize the content and advertising you see.
Visit our Privacy Policy to learn more. By continuing to use the site, you agree to this use of cookies and data.
  • In Netherlands
  • List of Countries
  • For 7 days
  • Water Temperature
  • Weather Map
  • Weather Widgets
  • user-avatar
    Login

    Hourly Weather Karpisonovka

    Today, 13 December, Friday

    Time Temperature Precipitation Wind Pressure Humidity
    00:00 -1°C° 0 mm 5 mps 745 mmHg 93%
    01:00 -1°C° 0 mm 5 mps 744 mmHg 92%
    02:00 -1°C° 0 mm 5 mps 744 mmHg 90%
    03:00 -1°C° 0 mm 5 mps 744 mmHg 89%
    04:00 -1°C° 0 mm 4 mps 743 mmHg 89%
    05:00 -1°C° 0 mm 4 mps 743 mmHg 89%
    06:00 -1°C° 0.1 mm 4 mps 743 mmHg 91%
    07:00 -1°C° 0.1 mm 4 mps 742 mmHg 94%
    08:00 -2°C° 0 mm 5 mps 742 mmHg 95%
    09:00 -2°C° 0 mm 5 mps 742 mmHg 95%
    10:00 -2°C° 0 mm 5 mps 742 mmHg 95%
    11:00 -3°C° 0 mm 6 mps 741 mmHg 95%
    12:00 -3°C° 0 mm 6 mps 741 mmHg 93%
    13:00 -3°C° 0 mm 6 mps 741 mmHg 92%
    14:00 -1°C° 0 mm 5 mps 740 mmHg 87%
    15:00 -2°C° 0 mm 5 mps 740 mmHg 87%
    16:00 -3°C° 0 mm 6 mps 740 mmHg 87%
    17:00 -3°C° 0 mm 6 mps 739 mmHg 87%
    18:00 -3°C° 0 mm 6 mps 739 mmHg 86%
    19:00 -3°C° 0 mm 6 mps 739 mmHg 86%
    20:00 -3°C° 0 mm 7 mps 739 mmHg 85%
    21:00 -3°C° 0 mm 7 mps 739 mmHg 84%
    22:00 -3°C° 0 mm 7 mps 739 mmHg 84%
    23:00 -3°C° 0 mm 7 mps 739 mmHg 83%

    Tomorrow, 14 December, Saturday

    Time Temperature Precipitation Wind Pressure Humidity
    00:00 -3°C° 0 mm 7 mps 739 mmHg 83%
    01:00 -3°C° 0 mm 7 mps 740 mmHg 83%
    02:00 -3°C° 0 mm 7 mps 740 mmHg 83%
    03:00 -3°C° 0 mm 7 mps 740 mmHg 84%
    04:00 -3°C° 0 mm 6 mps 739 mmHg 84%
    05:00 -3°C° 0 mm 6 mps 739 mmHg 85%
    06:00 -3°C° 0 mm 6 mps 739 mmHg 84%
    07:00 -3°C° 0 mm 6 mps 740 mmHg 84%
    08:00 -2°C° 0 mm 5 mps 740 mmHg 83%
    09:00 -2°C° 0 mm 5 mps 740 mmHg 82%
    10:00 -2°C° 0 mm 5 mps 740 mmHg 82%
    11:00 -1°C° 0 mm 5 mps 739 mmHg 81%
    12:00 -1°C° 0 mm 5 mps 739 mmHg 82%
    13:00 -1°C° 0 mm 5 mps 739 mmHg 83%
    14:00 -1°C° 0 mm 5 mps 739 mmHg 84%
    15:00 -1°C° 0 mm 5 mps 739 mmHg 86%
    16:00 -1°C° 0 mm 5 mps 739 mmHg 88%
    17:00 -1°C° 0 mm 5 mps 739 mmHg 89%
    18:00 -1°C° 0 mm 5 mps 739 mmHg 91%
    19:00 -1°C° 0 mm 5 mps 739 mmHg 92%
    20:00 -1°C° 0 mm 4 mps 739 mmHg 94%
    21:00 -1°C° 0 mm 5 mps 738 mmHg 94%
    22:00 -1°C° 0 mm 5 mps 738 mmHg 95%
    23:00 -1°C° 0 mm 5 mps 738 mmHg 95%

    Day after tomorrow, 15 December, Sunday

    Time Temperature Precipitation Wind Pressure Humidity
    00:00 0°C° 0 mm 5 mps 738 mmHg 95%
    01:00 0°C° 0 mm 5 mps 738 mmHg 95%
    02:00 0°C° 0 mm 5 mps 738 mmHg 95%
    03:00 +1°C° 0.2 mm 5 mps 737 mmHg 95%
    04:00 +1°C° 0.2 mm 5 mps 736 mmHg 95%
    05:00 +1°C° 0.2 mm 5 mps 736 mmHg 96%
    06:00 +1°C° 0.3 mm 5 mps 736 mmHg 95%
    07:00 +1°C° 0.3 mm 5 mps 736 mmHg 95%
    08:00 +2°C° 0.3 mm 5 mps 736 mmHg 95%
    09:00 +2°C° 0.3 mm 5 mps 737 mmHg 92%
    10:00 +2°C° 0.3 mm 5 mps 737 mmHg 88%
    11:00 +2°C° 0.3 mm 5 mps 737 mmHg 85%
    12:00 +2°C° 0 mm 5 mps 738 mmHg 83%
    13:00 +1°C° 0 mm 5 mps 738 mmHg 81%
    14:00 +1°C° 0 mm 4 mps 739 mmHg 80%
    15:00 +1°C° 0 mm 4 mps 739 mmHg 81%
    16:00 0°C° 0 mm 4 mps 740 mmHg 83%
    17:00 0°C° 0 mm 4 mps 740 mmHg 85%
    18:00 -1°C° 0 mm 4 mps 741 mmHg 87%
    19:00 -1°C° 0 mm 4 mps 741 mmHg 88%
    20:00 -2°C° 0 mm 4 mps 741 mmHg 90%
    21:00 -1°C° 0 mm 4 mps 741 mmHg 89%
    22:00 -1°C° 0 mm 5 mps 741 mmHg 88%
    23:00 0°C° 0 mm 5 mps 741 mmHg 88%

    16 December, Monday

    Time Temperature Precipitation Wind Pressure Humidity
    00:00 -1°C° 0.1 mm 6 mps 740 mmHg 87%
    01:00 0°C° 0.1 mm 7 mps 740 mmHg 86%
    02:00 +1°C° 0.1 mm 8 mps 740 mmHg 86%
    03:00 +2°C° 0 mm 7 mps 741 mmHg 85%
    04:00 0°C° 0 mm 7 mps 741 mmHg 84%
    05:00 +1°C° 0 mm 6 mps 742 mmHg 84%
    06:00 -1°C° 0 mm 6 mps 742 mmHg 84%
    07:00 0°C° 0 mm 5 mps 743 mmHg 84%
    08:00 -1°C° 0 mm 5 mps 744 mmHg 84%
    09:00 0°C° 0 mm 5 mps 744 mmHg 81%
    10:00 0°C° 0 mm 5 mps 744 mmHg 79%
    11:00 -1°C° 0 mm 6 mps 745 mmHg 77%
    12:00 0°C° 0 mm 5 mps 745 mmHg 75%
    13:00 0°C° 0 mm 5 mps 745 mmHg 73%
    14:00 0°C° 0 mm 4 mps 746 mmHg 71%
    15:00 0°C° 0 mm 4 mps 746 mmHg 75%
    16:00 -1°C° 0 mm 4 mps 746 mmHg 80%
    17:00 -1°C° 0 mm 3 mps 746 mmHg 84%
    18:00 -1°C° 0 mm 3 mps 747 mmHg 85%
    19:00 -1°C° 0 mm 3 mps 747 mmHg 86%
    20:00 -1°C° 0 mm 3 mps 747 mmHg 87%
    21:00 -1°C° 0 mm 3 mps 747 mmHg 88%
    22:00 -1°C° 0 mm 3 mps 747 mmHg 88%
    23:00 -1°C° 0 mm 2 mps 747 mmHg 89%

    17 December, Tuesday

    Time Temperature Precipitation Wind Pressure Humidity
    00:00 +1°C° 0 mm 2 mps 747 mmHg 90%
    01:00 +1°C° 0 mm 2 mps 747 mmHg 91%
    02:00 +1°C° 0 mm 2 mps 747 mmHg 92%
    03:00 +1°C° 0.1 mm 2 mps 747 mmHg 93%
    04:00 +2°C° 0.1 mm 2 mps 747 mmHg 94%
    05:00 +2°C° 0.1 mm 2 mps 747 mmHg 94%
    06:00 +1°C° 0 mm 3 mps 747 mmHg 93%
    07:00 +1°C° 0 mm 3 mps 746 mmHg 92%
    08:00 0°C° 0 mm 4 mps 746 mmHg 90%
    09:00 +1°C° 0 mm 4 mps 746 mmHg 89%
    10:00 +1°C° 0 mm 4 mps 746 mmHg 87%
    11:00 +1°C° 0 mm 4 mps 746 mmHg 85%
    12:00 +1°C° 0 mm 4 mps 746 mmHg 84%
    13:00 +1°C° 0 mm 4 mps 746 mmHg 83%
    14:00 +3°C° 0 mm 4 mps 745 mmHg 82%
    15:00 +1°C° 0 mm 4 mps 745 mmHg 84%
    16:00 +1°C° 0 mm 3 mps 745 mmHg 86%
    17:00 +1°C° 0 mm 3 mps 745 mmHg 89%
    18:00 0°C° 0 mm 3 mps 745 mmHg 89%
    19:00 0°C° 0 mm 3 mps 745 mmHg 89%
    20:00 0°C° 0 mm 3 mps 745 mmHg 90%
    21:00 0°C° 0 mm 3 mps 745 mmHg 90%
    22:00 0°C° 0 mm 3 mps 745 mmHg 90%
    23:00 0°C° 0 mm 3 mps 745 mmHg 90%

    18 December, Wednesday

    Time Temperature Precipitation Wind Pressure Humidity
    00:00 0°C° 0 mm 3 mps 745 mmHg 90%
    01:00 0°C° 0 mm 3 mps 745 mmHg 90%
    02:00 +1°C° 0 mm 2 mps 745 mmHg 90%
    03:00 +1°C° 0 mm 2 mps 744 mmHg 90%
    04:00 +1°C° 0 mm 2 mps 744 mmHg 91%
    05:00 +1°C° 0 mm 2 mps 744 mmHg 91%
    06:00 0°C° 0 mm 3 mps 744 mmHg 91%
    07:00 0°C° 0 mm 3 mps 743 mmHg 91%
    08:00 0°C° 0 mm 3 mps 743 mmHg 91%
    09:00 +1°C° 0 mm 3 mps 743 mmHg 88%
    10:00 +1°C° 0 mm 3 mps 743 mmHg 86%
    11:00 +2°C° 0 mm 3 mps 743 mmHg 84%
    12:00 +2°C° 0 mm 3 mps 743 mmHg 84%
    13:00 +2°C° 0 mm 3 mps 743 mmHg 85%
    14:00 +2°C° 0 mm 3 mps 742 mmHg 85%
    15:00 +2°C° 0 mm 3 mps 742 mmHg 88%
    16:00 +1°C° 0 mm 3 mps 742 mmHg 90%
    17:00 +1°C° 0 mm 3 mps 742 mmHg 92%
    18:00 +1°C° 0 mm 3 mps 742 mmHg 93%
    19:00 +1°C° 0 mm 3 mps 742 mmHg 94%
    20:00 +1°C° 0 mm 3 mps 742 mmHg 95%
    21:00 +1°C° 0 mm 3 mps 742 mmHg 95%
    22:00 +2°C° 0 mm 3 mps 742 mmHg 96%
    23:00 +2°C° 0 mm 3 mps 742 mmHg 96%
    Show more